TimeEST,TemperatureF,Dew PointF,Humidity,Sea Level PressureIn,VisibilityMPH,Wind Direction,Wind SpeedMPH,Gust SpeedMPH,PrecipitationIn,Events,Conditions,WindDirDegrees,DateUTC
12:56 AM,30.0,24.1,79,30.23,7.0,SW,3.5,-,N/A,,Partly Cloudy,230,2013-01-06 05:56:00
1:56 AM,33.1,25.0,72,30.24,10.0,West,5.8,-,N/A,,Scattered Clouds,260,2013-01-06 06:56:00
2:56 AM,34.0,25.0,70,30.21,10.0,Calm,Calm,-,N/A,,Overcast,0,2013-01-06 07:56:00
3:56 AM,35.1,26.1,70,30.17,10.0,Calm,Calm,-,N/A,,Overcast,0,2013-01-06 08:56:00
4:56 AM,34.0,28.9,82,30.17,4.0,WSW,8.1,-,0.00,Snow,Light Snow,240,2013-01-06 09:56:00
5:04 AM,33.8,28.4,81,30.16,4.0,WSW,6.9,-,0.00,Snow,Light Snow,240,2013-01-06 10:04:00
5:17 AM,33.8,30.2,87,30.15,4.0,WSW,6.9,-,0.00,Snow,Light Snow,250,2013-01-06 10:17:00
5:27 AM,33.8,30.2,87,30.16,4.0,WSW,6.9,-,0.00,Snow,Light Snow,240,2013-01-06 10:27:00
5:54 AM,33.8,30.2,87,30.14,2.5,WSW,6.9,-,0.00,Snow,Light Snow,240,2013-01-06 10:54:00
5:56 AM,34.0,30.0,85,30.15,2.5,WSW,5.8,-,0.00,Snow,Light Snow,240,2013-01-06 10:56:00
6:24 AM,33.8,30.2,87,30.14,3.0,SW,4.6,-,0.00,Snow,Light Snow,220,2013-01-06 11:24:00
6:56 AM,33.1,32.0,96,30.14,4.0,SSW,3.5,-,0.00,,Overcast,200,2013-01-06 11:56:00
7:03 AM,33.8,32.0,93,30.13,4.0,SSW,3.5,-,N/A,,Overcast,200,2013-01-06 12:03:00
7:56 AM,34.0,33.1,96,30.13,4.0,Calm,Calm,-,N/A,,Overcast,0,2013-01-06 12:56:00
8:56 AM,35.1,33.1,92,30.12,4.0,Calm,Calm,-,N/A,,Overcast,0,2013-01-06 13:56:00
9:28 AM,35.6,33.8,93,30.11,6.0,WSW,4.6,-,N/A,,Overcast,250,2013-01-06 14:28:00
9:56 AM,37.9,34.0,86,30.12,8.0,West,6.9,-,N/A,,Overcast,260,2013-01-06 14:56:00
10:35 AM,39.2,33.8,81,30.10,10.0,WSW,12.7,-,N/A,,Scattered Clouds,250,2013-01-06 15:35:00
10:56 AM,39.9,34.0,79,30.09,10.0,WSW,10.4,-,N/A,,Clear,240,2013-01-06 15:56:00
11:56 AM,42.1,34.0,73,30.03,10.0,SSW,10.4,-,N/A,,Clear,210,2013-01-06 16:56:00
12:56 PM,44.1,32.0,63,30.01,10.0,WSW,8.1,-,N/A,,Clear,240,2013-01-06 17:56:00
1:56 PM,43.0,32.0,65,30.00,10.0,SSW,10.4,-,N/A,,Clear,200,2013-01-06 18:56:00
2:56 PM,42.1,32.0,67,29.99,10.0,SSW,11.5,-,N/A,,Clear,210,2013-01-06 19:56:00
3:56 PM,42.1,30.9,65,29.98,10.0,SW,6.9,-,N/A,,Clear,220,2013-01-06 20:56:00
4:56 PM,39.9,30.0,68,29.99,10.0,SW,6.9,-,N/A,,Clear,230,2013-01-06 21:56:00
5:56 PM,37.9,30.9,76,30.01,10.0,SW,3.5,-,N/A,,Clear,220,2013-01-06 22:56:00
6:56 PM,36.0,30.0,79,30.01,10.0,Calm,Calm,-,N/A,,Clear,0,2013-01-06 23:56:00
7:56 PM,35.1,30.0,82,30.01,9.0,West,4.6,-,N/A,,Clear,260,2013-01-07 00:56:00
8:56 PM,39.0,30.9,73,30.02,10.0,West,8.1,-,N/A,,Mostly Cloudy,280,2013-01-07 01:56:00
9:56 PM,37.9,27.0,65,30.03,10.0,WNW,4.6,-,N/A,,Clear,290,2013-01-07 02:56:00
10:56 PM,36.0,26.1,67,30.03,10.0,West,4.6,-,N/A,,Clear,280,2013-01-07 03:56:00
11:56 PM,34.0,25.0,70,30.04,10.0,West,3.5,-,N/A,,Clear,260,2013-01-07 04:56:00